Time,TemperatureF,DewpointF,PressureIn,WindDirection,WindDirectionDegrees,WindSpeedMPH,WindSpeedGustMPH,Humidity,HourlyPrecipIn,Conditions,Clouds,dailyrainin,SoftwareType,DateUTC
2013-01-19 00:07:00,29.1,15.8,30.28,SW,225,7.0,18.0,57,0.00,,---,0.00,VWS V14.00,2013-01-19 05:07:00,
2013-01-19 00:15:00,29.3,16.0,30.27,SSW,213,4.0,18.0,57,0.00,,---,0.00,VWS V14.00,2013-01-19 05:15:00,
2013-01-19 00:23:00,29.5,16.2,30.27,SSW,211,7.0,18.0,57,0.00,,---,0.00,VWS V14.00,2013-01-19 05:23:00,
2013-01-19 00:30:00,29.7,15.9,30.27,SW,219,12.0,18.0,56,0.00,,---,0.00,VWS V14.00,2013-01-19 05:30:00,
2013-01-19 00:39:00,29.9,16.1,30.26,SSW,213,5.0,18.0,56,0.00,,---,0.00,VWS V14.00,2013-01-19 05:39:00,
2013-01-19 00:47:00,30.1,16.3,30.26,ESE,119,5.0,18.0,56,0.00,,---,0.00,VWS V14.00,2013-01-19 05:47:00,
2013-01-19 00:55:00,30.4,16.6,30.26,SSW,210,5.0,18.0,56,0.00,,---,0.00,VWS V14.00,2013-01-19 05:55:00,
2013-01-19 01:00:00,30.4,16.2,30.26,SW,227,6.0,18.0,55,0.00,,---,0.00,VWS V14.00,2013-01-19 06:00:00,
2013-01-19 01:11:00,30.5,16.7,30.26,SW,234,7.0,12.0,56,0.00,,---,0.00,VWS V14.00,2013-01-19 06:11:00,
2013-01-19 01:19:00,30.6,16.8,30.26,SW,225,9.0,13.0,56,0.00,,---,0.00,VWS V14.00,2013-01-19 06:19:00,
2013-01-19 01:27:00,30.9,17.1,30.26,SW,222,8.0,13.0,56,0.00,,---,0.00,VWS V14.00,2013-01-19 06:27:00,
2013-01-19 01:35:00,31.4,17.1,30.26,WSW,247,7.0,14.0,55,0.00,,---,0.00,VWS V14.00,2013-01-19 06:35:00,
2013-01-19 01:43:00,32.0,17.7,30.26,WSW,250,8.0,19.0,55,0.00,,---,0.00,VWS V14.00,2013-01-19 06:43:00,
2013-01-19 01:51:00,32.6,17.8,30.26,South,173,5.0,19.0,54,0.00,,---,0.00,VWS V14.00,2013-01-19 06:51:00,
2013-01-19 01:59:00,33.0,17.8,30.26,SW,233,7.0,19.0,53,0.00,,---,0.00,VWS V14.00,2013-01-19 06:59:00,
2013-01-19 02:07:00,33.4,18.1,30.25,SSW,193,6.0,16.0,53,0.00,,---,0.00,VWS V14.00,2013-01-19 07:07:00,
2013-01-19 02:15:00,33.5,18.6,30.25,SSW,213,8.0,16.0,54,0.00,,---,0.00,VWS V14.00,2013-01-19 07:15:00,
2013-01-19 02:23:00,33.7,18.4,30.25,SW,234,8.0,16.0,53,0.00,,---,0.00,VWS V14.00,2013-01-19 07:23:00,
2013-01-19 02:30:00,33.7,18.8,30.25,SW,232,6.0,16.0,54,0.00,,---,0.00,VWS V14.00,2013-01-19 07:30:00,
2013-01-19 02:39:00,33.5,19.1,30.25,SSW,196,7.0,18.0,55,0.00,,---,0.00,VWS V14.00,2013-01-19 07:39:00,
2013-01-19 02:48:00,33.7,18.8,30.25,SW,232,7.0,18.0,54,0.00,,---,0.00,VWS V14.00,2013-01-19 07:48:00,
2013-01-19 02:56:00,33.9,19.0,30.25,SW,223,4.0,19.0,54,0.00,,---,0.00,VWS V14.00,2013-01-19 07:56:00,
2013-01-19 03:04:00,33.6,19.2,30.24,SW,220,9.0,12.0,55,0.00,,---,0.00,VWS V14.00,2013-01-19 08:04:00,
2013-01-19 03:12:00,33.6,19.2,30.24,WSW,238,7.0,13.0,55,0.00,,---,0.00,VWS V14.00,2013-01-19 08:12:00,
2013-01-19 03:20:00,33.4,19.4,30.24,SSW,208,7.0,15.0,56,0.00,,---,0.00,VWS V14.00,2013-01-19 08:20:00,
2013-01-19 03:28:00,33.2,19.2,30.24,WSW,244,6.0,16.0,56,0.00,,---,0.00,VWS V14.00,2013-01-19 08:28:00,
2013-01-19 03:36:00,33.1,19.1,30.24,SW,236,10.0,14.0,56,0.00,,---,0.00,VWS V14.00,2013-01-19 08:36:00,
2013-01-19 03:44:00,33.0,19.4,30.23,SW,230,9.0,22.0,57,0.00,,---,0.00,VWS V14.00,2013-01-19 08:44:00,
2013-01-19 03:52:00,33.0,19.4,30.23,SSW,213,10.0,22.0,57,0.00,,---,0.00,VWS V14.00,2013-01-19 08:52:00,
2013-01-19 04:00:00,32.8,19.3,30.23,WSW,238,3.0,22.0,57,0.00,,---,0.00,VWS V14.00,2013-01-19 09:00:00,
2013-01-19 04:08:00,32.7,19.6,30.23,SW,227,7.0,12.0,58,0.00,,---,0.00,VWS V14.00,2013-01-19 09:08:00,
2013-01-19 04:16:00,32.7,19.2,30.22,SW,225,7.0,12.0,57,0.00,,---,0.00,VWS V14.00,2013-01-19 09:16:00,
2013-01-19 04:24:00,32.4,19.3,30.22,SW,223,4.0,12.0,58,0.00,,---,0.00,VWS V14.00,2013-01-19 09:24:00,
2013-01-19 04:30:00,32.4,19.3,30.22,SW,222,3.0,12.0,58,0.00,,---,0.00,VWS V14.00,2013-01-19 09:30:00,
2013-01-19 04:40:00,32.3,19.6,30.21,WSW,250,4.0,10.0,59,0.00,,---,0.00,VWS V14.00,2013-01-19 09:40:00,
2013-01-19 04:48:00,32.4,19.7,30.21,South,184,3.0,11.0,59,0.00,,---,0.00,VWS V14.00,2013-01-19 09:48:00,
2013-01-19 05:00:00,32.7,19.6,30.21,SSE,167,4.0,11.0,58,0.00,,---,0.00,VWS V14.00,2013-01-19 10:00:00,
2013-01-19 05:12:00,33.0,20.2,30.21,SW,225,10.0,13.0,59,0.00,,---,0.00,VWS V14.00,2013-01-19 10:12:00,
2013-01-19 05:20:00,34.1,20.5,30.21,SW,219,9.0,13.0,57,0.00,,---,0.00,VWS V14.00,2013-01-19 10:20:00,
2013-01-19 05:28:00,34.8,20.7,30.21,SW,221,12.0,14.0,56,0.00,,---,0.00,VWS V14.00,2013-01-19 10:28:00,
2013-01-19 05:36:00,35.3,20.8,30.21,SSW,207,13.0,18.0,55,0.00,,---,0.00,VWS V14.00,2013-01-19 10:36:00,
2013-01-19 05:44:00,35.5,21.0,30.20,SW,234,6.0,18.0,55,0.00,,---,0.00,VWS V14.00,2013-01-19 10:44:00,
2013-01-19 05:52:00,35.6,21.0,30.21,WSW,244,8.0,21.0,55,0.00,,---,0.00,VWS V14.00,2013-01-19 10:52:00,
2013-01-19 06:00:00,35.6,21.0,30.20,SW,228,8.0,21.0,55,0.00,,---,0.00,VWS V14.00,2013-01-19 11:00:00,
2013-01-19 06:08:00,35.6,21.0,30.21,West,267,4.0,18.0,55,0.00,,---,0.00,VWS V14.00,2013-01-19 11:08:00,
2013-01-19 07:54:00,35.5,21.4,30.18,WSW,257,8.0,22.0,56,0.00,,---,0.00,VWS V14.00,2013-01-19 12:54:00,
2013-01-19 08:00:00,35.4,21.3,30.18,SSW,207,5.0,22.0,56,0.00,,---,0.00,VWS V14.00,2013-01-19 13:00:00,
2013-01-19 08:02:00,35.3,21.6,30.18,WSW,248,6.0,17.0,57,0.00,,---,0.00,VWS V14.00,2013-01-19 13:02:00,
2013-01-19 08:10:00,35.3,21.6,30.18,SE,141,10.0,22.0,57,0.00,,---,0.00,VWS V14.00,2013-01-19 13:10:00,
2013-01-19 08:18:00,35.2,21.5,30.18,SW,221,10.0,22.0,57,0.00,,---,0.00,VWS V14.00,2013-01-19 13:18:00,
2013-01-19 08:26:00,35.0,21.7,30.18,SSW,213,11.0,22.0,58,0.00,,---,0.00,VWS V14.00,2013-01-19 13:26:00,
2013-01-19 08:30:00,35.1,21.4,30.18,West,259,8.0,22.0,57,0.00,,---,0.00,VWS V14.00,2013-01-19 13:30:00,
2013-01-19 08:42:00,35.3,21.6,30.18,SW,236,7.0,19.0,57,0.00,,---,0.00,VWS V14.00,2013-01-19 13:42:00,
2013-01-19 08:50:00,35.6,21.9,30.18,SW,227,6.0,19.0,57,0.00,,---,0.00,VWS V14.00,2013-01-19 13:50:00,
2013-01-19 08:58:00,36.0,22.7,30.18,SSW,205,7.0,19.0,58,0.00,,---,0.00,VWS V14.00,2013-01-19 13:58:00,
2013-01-19 09:06:00,36.2,22.5,30.18,SSW,209,13.0,15.0,57,0.00,,---,0.00,VWS V14.00,2013-01-19 14:06:00,
2013-01-19 09:14:00,36.6,22.8,30.18,SW,217,15.0,15.0,57,0.00,,---,0.00,VWS V14.00,2013-01-19 14:14:00,
2013-01-19 09:22:00,36.8,22.6,30.18,SW,226,14.0,21.0,56,0.00,,---,0.00,VWS V14.00,2013-01-19 14:22:00,
2013-01-19 09:30:00,37.1,22.9,30.18,SSW,211,11.0,21.0,56,0.00,,---,0.00,VWS V14.00,2013-01-19 14:30:00,
2013-01-19 09:39:00,37.7,23.4,30.18,SSW,196,6.0,20.0,56,0.00,,---,0.00,VWS V14.00,2013-01-19 14:39:00,
2013-01-19 09:47:00,38.3,24.0,30.18,South,190,9.0,20.0,56,0.00,,---,0.00,VWS V14.00,2013-01-19 14:47:00,
2013-01-19 09:55:00,38.5,23.8,30.18,NW,307,4.0,22.0,55,0.00,,---,0.00,VWS V14.00,2013-01-19 14:55:00,
2013-01-19 10:00:00,38.8,24.0,30.18,SW,234,13.0,22.0,55,0.00,,---,0.00,VWS V14.00,2013-01-19 15:00:00,
2013-01-19 10:11:00,39.3,24.1,30.19,WSW,238,11.0,18.0,54,0.00,,---,0.00,VWS V14.00,2013-01-19 15:11:00,
2013-01-19 10:19:00,39.7,24.4,30.18,SW,233,4.0,18.0,54,0.00,,---,0.00,VWS V14.00,2013-01-19 15:19:00,
2013-01-19 10:27:00,40.3,25.4,30.19,SSW,202,6.0,18.0,55,0.00,,---,0.00,VWS V14.00,2013-01-19 15:27:00,
2013-01-19 10:35:00,41.0,25.6,30.18,West,259,7.0,15.0,54,0.00,,---,0.00,VWS V14.00,2013-01-19 15:35:00,
2013-01-19 10:43:00,41.1,25.3,30.18,SSW,205,11.0,22.0,53,0.00,,---,0.00,VWS V14.00,2013-01-19 15:43:00,
2013-01-19 10:59:00,41.8,25.9,30.18,WNW,290,10.0,22.0,53,0.00,,---,0.00,VWS V14.00,2013-01-19 15:59:00,
2013-01-19 11:07:00,41.5,26.1,30.18,WSW,247,2.0,17.0,54,0.00,,---,0.00,VWS V14.00,2013-01-19 16:07:00,
2013-01-19 11:15:00,41.6,26.2,30.18,WSW,242,6.0,17.0,54,0.00,,---,0.00,VWS V14.00,2013-01-19 16:15:00,
2013-01-19 11:23:00,41.5,26.1,30.17,NW,317,8.0,17.0,54,0.00,,---,0.00,VWS V14.00,2013-01-19 16:23:00,
2013-01-19 11:30:00,41.9,26.5,30.17,WSW,253,12.0,18.0,54,0.00,,---,0.00,VWS V14.00,2013-01-19 16:30:00,
2013-01-19 11:39:00,42.4,27.0,30.16,South,186,12.0,18.0,54,0.00,,---,0.00,VWS V14.00,2013-01-19 16:39:00,
2013-01-19 11:47:00,43.3,27.3,30.15,West,265,8.0,18.0,53,0.00,,---,0.00,VWS V14.00,2013-01-19 16:47:00,
2013-01-19 11:55:00,43.4,27.4,30.14,WNW,298,6.0,18.0,53,0.00,,---,0.00,VWS V14.00,2013-01-19 16:55:00,
2013-01-19 12:00:00,43.7,27.7,30.14,SW,228,7.0,18.0,53,0.00,,---,0.00,VWS V14.00,2013-01-19 17:00:00,
2013-01-19 12:11:00,44.0,27.5,30.12,West,264,11.0,17.0,52,0.00,,---,0.00,VWS V14.00,2013-01-19 17:11:00,
2013-01-19 12:30:00,44.2,27.7,30.12,SSW,201,6.0,18.0,52,0.00,,---,0.00,VWS V14.00,2013-01-19 17:30:00,
2013-01-19 12:35:00,44.3,27.8,30.11,SW,221,6.0,15.0,52,0.00,,---,0.00,VWS V14.00,2013-01-19 17:35:00,
2013-01-19 12:43:00,44.4,27.4,30.10,SSW,205,7.0,20.0,51,0.00,,---,0.00,VWS V14.00,2013-01-19 17:43:00,
2013-01-19 12:52:00,44.5,28.0,30.10,WSW,249,5.0,20.0,52,0.00,,---,0.00,VWS V14.00,2013-01-19 17:52:00,
2013-01-19 13:00:00,44.6,27.6,30.10,SW,228,5.0,20.0,51,0.00,,---,0.00,VWS V14.00,2013-01-19 18:00:00,
2013-01-19 13:08:00,44.8,27.8,30.10,SW,218,12.0,15.0,51,0.00,,---,0.00,VWS V14.00,2013-01-19 18:08:00,
2013-01-19 13:16:00,45.6,28.5,30.09,West,265,8.0,20.0,51,0.00,,---,0.00,VWS V14.00,2013-01-19 18:16:00,
2013-01-19 13:30:00,46.0,28.9,30.08,SW,227,5.0,20.0,51,0.00,,---,0.00,VWS V14.00,2013-01-19 18:30:00,
2013-01-19 13:40:00,44.5,28.0,30.07,SW,225,10.0,20.0,52,0.00,,---,0.00,VWS V14.00,2013-01-19 18:40:00,
2013-01-19 13:48:00,44.5,28.0,30.07,SW,215,5.0,20.0,52,0.00,,---,0.00,VWS V14.00,2013-01-19 18:48:00,
2013-01-19 13:56:00,44.8,28.3,30.07,West,265,12.0,20.0,52,0.00,,---,0.00,VWS V14.00,2013-01-19 18:56:00,
2013-01-19 14:04:00,44.8,27.8,30.06,SSW,202,9.0,13.0,51,0.00,,---,0.00,VWS V14.00,2013-01-19 19:04:00,
2013-01-19 14:12:00,44.8,27.8,30.06,WNW,290,6.0,15.0,51,0.00,,---,0.00,VWS V14.00,2013-01-19 19:12:00,
2013-01-19 14:20:00,44.8,28.7,30.06,SW,214,10.0,18.0,53,0.00,,---,0.00,VWS V14.00,2013-01-19 19:20:00,
2013-01-19 14:28:00,45.4,28.4,30.05,SW,226,10.0,18.0,51,0.00,,---,0.00,VWS V14.00,2013-01-19 19:28:00,
2013-01-19 14:36:00,45.4,27.9,30.04,SW,227,9.0,13.0,50,0.00,,---,0.00,VWS V14.00,2013-01-19 19:36:00,
2013-01-19 14:45:00,45.3,28.2,30.04,WSW,252,8.0,13.0,51,0.00,,---,0.00,VWS V14.00,2013-01-19 19:45:00,
2013-01-19 14:53:00,45.9,28.8,30.03,SW,217,6.0,13.0,51,0.00,,---,0.00,VWS V14.00,2013-01-19 19:53:00,
2013-01-19 15:00:00,46.2,28.6,30.03,SW,225,15.0,15.0,50,0.00,,---,0.00,VWS V14.00,2013-01-19 20:00:00,
2013-01-19 15:09:00,46.2,28.6,30.02,West,259,4.0,15.0,50,0.00,,---,0.00,VWS V14.00,2013-01-19 20:09:00,
2013-01-19 15:17:00,46.4,29.3,30.01,SW,218,7.0,15.0,51,0.00,,---,0.00,VWS V14.00,2013-01-19 20:17:00,
2013-01-19 15:25:00,46.3,28.7,30.01,SW,229,5.0,15.0,50,0.00,,---,0.00,VWS V14.00,2013-01-19 20:25:00,
2013-01-19 15:30:00,46.0,28.9,30.01,SSW,203,7.0,15.0,51,0.00,,---,0.00,VWS V14.00,2013-01-19 20:30:00,
2013-01-19 15:41:00,46.6,29.0,30.00,WSW,241,1.0,10.0,50,0.00,,---,0.00,VWS V14.00,2013-01-19 20:41:00,
2013-01-19 15:49:00,47.4,29.7,30.00,SW,228,8.0,16.0,50,0.00,,---,0.00,VWS V14.00,2013-01-19 20:49:00,
2013-01-19 15:57:00,47.6,29.9,29.99,SW,221,5.0,18.0,50,0.00,,---,0.00,VWS V14.00,2013-01-19 20:57:00,
2013-01-19 16:05:00,47.6,29.9,29.99,SW,232,4.0,10.0,50,0.00,,---,0.00,VWS V14.00,2013-01-19 21:05:00,
2013-01-19 16:13:00,47.8,29.6,29.99,SW,232,4.0,15.0,49,0.00,,---,0.00,VWS V14.00,2013-01-19 21:13:00,
2013-01-19 16:37:00,47.2,29.0,29.97,SSW,203,6.0,15.0,49,0.00,,---,0.00,VWS V14.00,2013-01-19 21:37:00,
2013-01-19 16:45:00,46.9,28.8,29.96,SSW,192,10.0,15.0,49,0.00,,---,0.00,VWS V14.00,2013-01-19 21:45:00,
2013-01-19 16:53:00,46.5,28.9,29.96,WSW,239,7.0,17.0,50,0.00,,---,0.00,VWS V14.00,2013-01-19 21:53:00,
2013-01-19 17:00:00,46.3,28.2,29.95,SW,227,7.0,17.0,49,0.00,,---,0.00,VWS V14.00,2013-01-19 22:00:00,
2013-01-19 17:10:00,46.0,27.9,29.95,South,184,10.0,15.0,49,0.00,,---,0.00,VWS V14.00,2013-01-19 22:10:00,
2013-01-19 17:18:00,45.9,27.3,29.94,SSW,204,4.0,15.0,48,0.00,,---,0.00,VWS V14.00,2013-01-19 22:18:00,
2013-01-19 17:30:00,45.5,27.0,29.94,SSW,211,7.0,15.0,48,0.00,,---,0.00,VWS V14.00,2013-01-19 22:30:00,
2013-01-19 17:42:00,45.1,26.6,29.93,WSW,247,5.0,14.0,48,0.00,,---,0.00,VWS V14.00,2013-01-19 22:42:00,
2013-01-19 17:50:00,45.1,26.1,29.93,SW,226,12.0,14.0,47,0.00,,---,0.00,VWS V14.00,2013-01-19 22:50:00,
2013-01-19 17:58:00,45.0,26.0,29.92,WSW,246,4.0,15.0,47,0.00,,---,0.00,VWS V14.00,2013-01-19 22:58:00,
2013-01-19 18:15:00,44.7,25.2,29.91,SW,233,12.0,15.0,46,0.00,,---,0.00,VWS V14.00,2013-01-19 23:15:00,
2013-01-19 18:23:00,44.8,24.8,29.91,SSW,207,10.0,20.0,45,0.00,,---,0.00,VWS V14.00,2013-01-19 23:23:00,
2013-01-19 18:39:00,44.6,24.0,29.91,SW,214,6.0,16.0,44,0.00,,---,0.00,VWS V14.00,2013-01-19 23:39:00,
2013-01-19 18:47:00,44.6,24.0,29.91,SSW,211,6.0,18.0,44,0.00,,---,0.00,VWS V14.00,2013-01-19 23:47:00,
2013-01-19 18:55:00,44.6,23.5,29.92,SW,217,5.0,18.0,43,0.00,,---,0.00,VWS V14.00,2013-01-19 23:55:00,
2013-01-19 19:03:00,44.5,23.4,29.92,SW,230,6.0,14.0,43,0.00,,---,0.00,VWS V14.00,2013-01-20 00:03:00,
2013-01-19 19:11:00,44.6,23.5,29.92,SW,229,6.0,18.0,43,0.00,,---,0.00,VWS V14.00,2013-01-20 00:11:00,
2013-01-19 19:19:00,44.9,23.8,29.92,SW,222,12.0,18.0,43,0.00,,---,0.00,VWS V14.00,2013-01-20 00:19:00,
2013-01-19 19:27:00,44.9,23.8,29.91,WSW,246,11.0,18.0,43,0.00,,---,0.00,VWS V14.00,2013-01-20 00:27:00,
2013-01-19 19:35:00,44.7,23.6,29.91,SW,228,4.0,13.0,43,0.00,,---,0.00,VWS V14.00,2013-01-20 00:35:00,
2013-01-19 19:43:00,44.5,23.4,29.91,SW,236,9.0,15.0,43,0.00,,---,0.00,VWS V14.00,2013-01-20 00:43:00,
2013-01-19 19:59:00,44.7,23.6,29.91,SW,215,9.0,15.0,43,0.00,,---,0.00,VWS V14.00,2013-01-20 00:59:00,
2013-01-19 20:07:00,44.8,24.2,29.91,SW,225,9.0,14.0,44,0.00,,---,0.00,VWS V14.00,2013-01-20 01:07:00,
2013-01-19 20:15:00,45.1,24.5,29.91,West,261,3.0,17.0,44,0.00,,---,0.00,VWS V14.00,2013-01-20 01:15:00,
2013-01-19 20:30:00,45.1,24.5,29.90,WSW,243,9.0,17.0,44,0.00,,---,0.00,VWS V14.00,2013-01-20 01:30:00,
2013-01-19 20:40:00,45.0,24.4,29.90,SW,230,3.0,18.0,44,0.00,,---,0.00,VWS V14.00,2013-01-20 01:40:00,
2013-01-19 20:56:00,45.2,25.1,29.89,WSW,244,7.0,21.0,45,0.00,,---,0.00,VWS V14.00,2013-01-20 01:56:00,
2013-01-19 21:04:00,45.2,25.1,29.88,WSW,253,13.0,15.0,45,0.00,,---,0.00,VWS V14.00,2013-01-20 02:04:00,
2013-01-19 21:20:00,45.2,25.7,29.87,SSW,210,10.0,19.0,46,0.00,,---,0.00,VWS V14.00,2013-01-20 02:20:00,
2013-01-19 21:29:00,45.1,25.6,29.87,SSW,199,13.0,19.0,46,0.00,,---,0.00,VWS V14.00,2013-01-20 02:29:00,
2013-01-19 21:45:00,45.3,25.8,29.86,WSW,242,6.0,18.0,46,0.00,,---,0.00,VWS V14.00,2013-01-20 02:45:00,
2013-01-19 21:53:00,45.2,25.7,29.86,SW,219,8.0,19.0,46,0.00,,---,0.00,VWS V14.00,2013-01-20 02:53:00,
2013-01-19 22:00:00,44.8,25.8,29.85,SSW,205,9.0,19.0,47,0.00,,---,0.00,VWS V14.00,2013-01-20 03:00:00,
2013-01-19 22:09:00,44.7,25.7,29.85,WSW,247,4.0,17.0,47,0.00,,---,0.00,VWS V14.00,2013-01-20 03:09:00,
2013-01-19 22:25:00,44.8,25.8,29.84,SW,218,17.0,22.0,47,0.00,,---,0.00,VWS V14.00,2013-01-20 03:25:00,
2013-01-19 22:33:00,44.7,25.7,29.83,West,267,5.0,14.0,47,0.00,,---,0.00,VWS V14.00,2013-01-20 03:33:00,
2013-01-19 22:49:00,44.5,26.0,29.82,South,189,13.0,22.0,48,0.00,,---,0.00,VWS V14.00,2013-01-20 03:49:00,
2013-01-19 22:57:00,44.5,26.0,29.82,SSW,203,4.0,22.0,48,0.00,,---,0.00,VWS V14.00,2013-01-20 03:57:00,
2013-01-19 23:06:00,44.6,25.6,29.82,West,281,5.0,22.0,47,0.00,,---,0.00,VWS V14.00,2013-01-20 04:06:00,
2013-01-19 23:30:00,44.6,26.1,29.80,SW,214,11.0,23.0,48,0.00,,---,0.00,VWS V14.00,2013-01-20 04:30:00,
2013-01-19 23:38:00,44.7,26.2,29.80,WSW,248,13.0,24.0,48,0.00,,---,0.00,VWS V14.00,2013-01-20 04:38:00,
2013-01-19 23:54:00,44.7,26.7,29.78,SSW,210,19.0,24.0,49,0.00,,---,0.00,VWS V14.00,2013-01-20 04:54:00,